| time (UTC) | temp F | wind direction | speed MPH | gust MPH | rain 1hr in | rain 24hr in | rain mn in | humidity % | barometer mb |
| 20260505140109 | 54 | 9 | 9.0 | 19.0 | 0.00 | 0.00 | 0.00 | 57 | 1013.6 |
| 20260505124556 | 58 | 248 | 0.0 | 6.0 | 0.00 | 0.00 | 0.00 | 38 | 1012.4 |
| 20260505123056 | 58 | 254 | 2.0 | 4.0 | 0.00 | 0.00 | 0.00 | 37 | 1012.7 |
| 20260505121602 | 58 | 219 | 0.0 | 4.0 | 0.00 | 0.00 | 0.00 | 37 | 1012.4 |
| 20260505120111 | 58 | 255 | 2.0 | 8.0 | 0.00 | 0.00 | 0.00 | 36 | 1012.5 |
| 20260505114559 | 58 | 270 | 6.0 | 11.0 | 0.00 | 0.00 | 0.00 | 36 | 1012.6 |
| 20260505113101 | 58 | 278 | 1.0 | 4.0 | 0.00 | 0.00 | 0.00 | 35 | 1012.3 |
| 20260505111555 | 58 | 0 | 0.0 | 6.0 | 0.00 | 0.00 | 0.00 | 35 | 1012.3 |
| 20260505101558 | 59 | 219 | 1.0 | 4.0 | 0.00 | 0.00 | 0.00 | 34 | 1012.5 |
| 20260505100057 | 59 | 0 | 0.0 | 3.0 | 0.00 | 0.00 | 0.00 | 33 | 1012.4 |
| 20260505094559 | 59 | 0 | 1.0 | 4.0 | 0.00 | 0.00 | 0.00 | 33 | 1012.3 |
| 20260505093056 | 60 | 0 | 0.0 | 3.0 | 0.00 | 0.00 | 0.00 | 32 | 1012.2 |
| 20260505091555 | 60 | 153 | 1.0 | 3.0 | 0.00 | 0.00 | 0.00 | 32 | 1012.6 |
| 20260505090058 | 61 | 0 | 0.0 | 5.0 | 0.00 | 0.00 | 0.00 | 30 | 1012.5 |
| 20260505084603 | 61 | 286 | 3.0 | 10.0 | 0.00 | 0.00 | 0.00 | 30 | 1012.7 |
| 20260505083105 | 61 | 311 | 3.0 | 7.0 | 0.00 | 0.00 | 0.00 | 30 | 1012.6 |
| 20260505081555 | 62 | 250 | 3.0 | 11.0 | 0.00 | 0.00 | 0.00 | 30 | 1012.9 |
| 20260505080054 | 62 | 294 | 4.0 | 10.0 | 0.00 | 0.00 | 0.00 | 30 | 1013.1 |
| 20260505074552 | 62 | 280 | 4.0 | 10.0 | 0.00 | 0.00 | 0.00 | 29 | 1013.2 |
| 20260505073055 | 63 | 276 | 4.0 | 10.0 | 0.00 | 0.00 | 0.00 | 29 | 1013.1 |
| 20260505071559 | 63 | 253 | 5.0 | 14.0 | 0.00 | 0.00 | 0.00 | 29 | 1012.9 |
| 20260505064557 | 64 | 252 | 7.0 | 15.0 | 0.00 | 0.00 | 0.00 | 27 | 1012.5 |
| 20260505063052 | 64 | 240 | 7.0 | 14.0 | 0.00 | 0.00 | 0.00 | 26 | 1012.3 |
| 20260505061613 | 65 | 231 | 7.0 | 15.0 | 0.00 | 0.00 | 0.00 | 25 | 1012.4 |
| 20260505060059 | 65 | 239 | 7.0 | 16.0 | 0.00 | 0.00 | 0.00 | 24 | 1012.2 |
| 20260505054558 | 66 | 263 | 8.0 | 16.0 | 0.00 | 0.00 | 0.00 | 24 | 1012.2 |
| 20260505053056 | 66 | 221 | 7.0 | 14.0 | 0.00 | 0.00 | 0.00 | 24 | 1012.1 |
| 20260505051553 | 66 | 235 | 5.0 | 12.0 | 0.00 | 0.00 | 0.00 | 24 | 1012.1 |
| 20260505041605 | 68 | 250 | 5.0 | 10.0 | 0.00 | 0.00 | 0.00 | 23 | 1011.9 |
| 20260505034556 | 68 | 248 | 5.0 | 9.0 | 0.00 | 0.00 | 0.00 | 22 | 1011.8 |
| 20260505033103 | 69 | 273 | 2.0 | 11.0 | 0.00 | 0.00 | 0.00 | 22 | 1011.6 |
| 20260505031556 | 69 | 279 | 6.0 | 13.0 | 0.00 | 0.00 | 0.00 | 22 | 1011.4 |
| 20260505030056 | 70 | 267 | 6.0 | 14.0 | 0.00 | 0.00 | 0.00 | 21 | 1011.3 |
| 20260505024554 | 70 | 252 | 6.0 | 17.0 | 0.00 | 0.00 | 0.00 | 20 | 1011.1 |
| 20260505023052 | 71 | 315 | 6.0 | 20.0 | 0.00 | 0.00 | 0.00 | 20 | 1011.0 |
| 20260505021602 | 71 | 255 | 10.0 | 21.0 | 0.00 | 0.00 | 0.00 | 19 | 1010.8 |
| 20260505020053 | 72 | 271 | 7.0 | 13.0 | 0.00 | 0.00 | 0.00 | 19 | 1010.6 |
| 20260505014555 | 72 | 248 | 9.0 | 14.0 | 0.00 | 0.00 | 0.00 | 18 | 1010.3 |
| 20260505013053 | 73 | 271 | 6.0 | 13.0 | 0.00 | 0.00 | 0.00 | 18 | 1010.1 |
| 20260505011551 | 73 | 246 | 7.0 | 15.0 | 0.00 | 0.00 | 0.00 | 18 | 1009.9 |
| 20260505010103 | 74 | 254 | 8.0 | 17.0 | 0.00 | 0.00 | 0.00 | 18 | 1009.8 |
| 20260505004601 | 74 | 254 | 11.0 | 21.0 | 0.00 | 0.00 | 0.00 | 17 | 1009.8 |
| 20260505003057 | 74 | 253 | 10.0 | 20.0 | 0.00 | 0.00 | 0.00 | 16 | 1010.0 |
| 20260505001554 | 75 | 257 | 12.0 | 21.0 | 0.00 | 0.00 | 0.00 | 15 | 1010.0 |
| 20260505000106 | 75 | 256 | 10.0 | 18.0 | 0.00 | 0.00 | 0.00 | 14 | 1010.0 |
| 20260504234606 | 75 | 209 | 9.0 | 22.0 | 0.00 | 0.00 | 0.00 | 14 | 1010.1 |
| 20260504233058 | 75 | 271 | 8.0 | 19.0 | 0.00 | 0.00 | 0.00 | 13 | 1010.5 |
| 20260504231558 | 75 | 267 | 7.0 | 22.0 | 0.00 | 0.00 | 0.00 | 13 | 1010.3 |
| 20260504230104 | 75 | 244 | 8.0 | 20.0 | 0.00 | 0.00 | 0.00 | 12 | 1010.4 |
| 20260504224604 | 76 | 269 | 12.0 | 19.0 | 0.00 | 0.00 | 0.00 | 12 | 1010.6 |
| 20260504223056 | 76 | 268 | 11.0 | 25.0 | 0.00 | 0.00 | 0.00 | 12 | 1010.6 |
| 20260504221554 | 76 | 231 | 10.0 | 21.0 | 0.00 | 0.00 | 0.00 | 12 | 1010.9 |
| 20260504220103 | 76 | 248 | 10.0 | 24.0 | 0.00 | 0.00 | 0.00 | 12 | 1010.9 |
| 20260504214600 | 76 | 218 | 10.0 | 22.0 | 0.00 | 0.00 | 0.00 | 12 | 1011.2 |
| 20260504213109 | 77 | 231 | 10.0 | 23.0 | 0.00 | 0.00 | 0.00 | 12 | 1011.3 |
| 20260504211554 | 77 | 221 | 10.0 | 23.0 | 0.00 | 0.00 | 0.00 | 12 | 1011.5 |
| 20260504210052 | 77 | 227 | 8.0 | 13.0 | 0.00 | 0.00 | 0.00 | 12 | 1011.9 |
| 20260504204601 | 77 | 257 | 7.0 | 16.0 | 0.00 | 0.00 | 0.00 | 14 | 1012.2 |
| 20260504203056 | 76 | 216 | 4.0 | 13.0 | 0.00 | 0.00 | 0.00 | 16 | 1012.7 |
| 20260504201553 | 75 | 188 | 7.0 | 14.0 | 0.00 | 0.00 | 0.00 | 16 | 1013.3 |
| 20260504200057 | 75 | 222 | 7.0 | 14.0 | 0.00 | 0.00 | 0.00 | 17 | 1013.3 |
| 20260504194557 | 74 | 303 | 7.0 | 16.0 | 0.00 | 0.00 | 0.00 | 17 | 1013.4 |
| 20260504193115 | 74 | 217 | 8.0 | 18.0 | 0.00 | 0.00 | 0.00 | 17 | 1013.7 |
| 20260504191555 | 73 | 259 | 9.0 | 16.0 | 0.00 | 0.00 | 0.00 | 18 | 1013.8 |
| 20260504190106 | 73 | 257 | 2.0 | 16.0 | 0.00 | 0.00 | 0.00 | 19 | 1013.9 |
| 20260504184554 | 73 | 286 | 6.0 | 18.0 | 0.00 | 0.00 | 0.00 | 18 | 1014.4 |
| 20260504183101 | 71 | 190 | 8.0 | 18.0 | 0.00 | 0.00 | 0.00 | 20 | 1014.6 |
| 20260504181551 | 70 | 269 | 5.0 | 17.0 | 0.00 | 0.00 | 0.00 | 21 | 1014.7 |
| 20260504180131 | 71 | 253 | 8.0 | 14.0 | 0.00 | 0.00 | 0.00 | 20 | 1015.0 |
| 20260504174552 | 70 | 198 | 6.0 | 14.0 | 0.00 | 0.00 | 0.00 | 19 | 1015.0 |
| 20260504173053 | 70 | 274 | 4.0 | 14.0 | 0.00 | 0.00 | 0.00 | 21 | 1015.3 |
| 20260504171554 | 69 | 256 | 4.0 | 11.0 | 0.00 | 0.00 | 0.00 | 21 | 1015.6 |